This is the latest recevied weather packets stored in our database for station/object KJ4YLO. If no packets are shown the sender has not sent any weather packets the latest 10 day(s).
| Time | Temp. | Humidity | Pressure | Rain* | Wind** | Luminosity | Snow |
|---|---|---|---|---|---|---|---|
| 1777678402 | 16.67° C | 65% | 1013.5 hPa | 0 mm | - | 12 W/m² | - |
| 1777678097 | 16.67° C | 64% | 1013.1 hPa | 0 mm | - | 16 W/m² | - |
| 1777677795 | 16.67° C | 64% | 1012.8 hPa | 0 mm | - | 25 W/m² | - |
| 1777677493 | 17.22° C | 63% | 1012.8 hPa | 0 mm | - | 29 W/m² | - |
| 1777677190 | 17.78° C | 60% | 1012.8 hPa | 0 mm | - | 32 W/m² | - |
| 1777676888 | 17.78° C | 61% | 1012.8 hPa | 0 mm | - | 41 W/m² | - |
| 1777676587 | 17.78° C | 59% | 1012.8 hPa | 0 mm | - | 46 W/m² | - |
| 1777676284 | 17.78° C | 59% | 1012.8 hPa | 0 mm | - | 37 W/m² | - |
| 1777675982 | 17.78° C | 60% | 1012.8 hPa | 0 mm | - | 55 W/m² | - |
| 1777675677 | 18.33° C | 58% | 1012.4 hPa | 0 mm | - | 70 W/m² | - |
| 1777675375 | 18.33° C | 59% | 1012.8 hPa | 0 mm | - | 78 W/m² | - |
| 1777675071 | 17.78° C | 58% | 1012.8 hPa | 0 mm | - | 75 W/m² | - |
| 1777674768 | 17.78° C | 60% | 1012.4 hPa | 0 mm | - | 102 W/m² | - |
| 1777674464 | 17.78° C | 61% | 1012.4 hPa | 0 mm | - | 124 W/m² | - |
| 1777674162 | 17.78° C | 59% | 1013.1 hPa | 0 mm | - | 114 W/m² | - |
| 1777673858 | 17.78° C | 59% | 1012.8 hPa | 0 mm | - | 109 W/m² | - |
| 1777673555 | 17.78° C | 61% | 1013.1 hPa | 0 mm | - | 98 W/m² | - |
| 1777673253 | 18.33° C | 60% | 1013.1 hPa | 0 mm | - | 90 W/m² | - |
| 1777672950 | 17.78° C | 57% | 1013.1 hPa | 0 mm | - | 81 W/m² | - |
| 1777672647 | 18.33° C | 58% | 1013.1 hPa | 0 mm | - | 84 W/m² | - |
| 1777672342 | 18.33° C | 57% | 1013.1 hPa | 0 mm | - | 119 W/m² | - |
| 1777672037 | 18.33° C | 56% | 1013.1 hPa | 0 mm | - | 116 W/m² | - |
| 1777671734 | 18.33° C | 54% | 1013.5 hPa | 0 mm | - | 131 W/m² | - |
| 1777671430 | 18.89° C | 55% | 1013.5 hPa | 0 mm | - | 152 W/m² | - |
| 1777671126 | 18.33° C | 56% | 1013.5 hPa | 0 mm | - | 180 W/m² | - |
* Rain latest hour (hover to see other rain measurements)
** Current wind speed in m/s (hover to see current wind gust speed)